TimeCST,TemperatureF,Dew PointF,Humidity,Sea Level PressureIn,VisibilityMPH,Wind Direction,Wind SpeedMPH,Gust SpeedMPH,PrecipitationIn,Events,Conditions,WindDirDegrees,DateUTC
12:52 AM,25.0,23.0,92,30.47,8.0,Calm,Calm,-,N/A,,Clear,0,2013-01-10 06:52:00
1:52 AM,24.1,21.9,91,30.46,10.0,Calm,Calm,-,N/A,,Clear,0,2013-01-10 07:52:00
2:52 AM,28.0,25.0,88,30.45,10.0,SSW,3.5,-,N/A,,Clear,200,2013-01-10 08:52:00
3:52 AM,28.0,26.1,92,30.45,10.0,Calm,Calm,-,N/A,,Clear,0,2013-01-10 09:52:00
4:52 AM,27.0,25.0,92,30.43,10.0,Calm,Calm,-,N/A,,Clear,0,2013-01-10 10:52:00
6:52 AM,30.9,27.0,85,30.40,10.0,ESE,4.6,-,N/A,,Clear,110,2013-01-10 12:52:00
8:52 AM,33.1,25.0,72,30.35,10.0,East,6.9,-,N/A,,Clear,100,2013-01-10 14:52:00
9:52 AM,35.1,25.0,67,30.32,10.0,ESE,6.9,-,N/A,,Clear,110,2013-01-10 15:52:00
10:52 AM,37.0,26.1,65,30.26,10.0,East,9.2,-,N/A,,Scattered Clouds,90,2013-01-10 16:52:00
11:52 AM,37.9,26.1,62,30.20,10.0,East,4.6,16.1,N/A,,Scattered Clouds,90,2013-01-10 17:52:00
12:52 PM,39.0,27.0,62,30.13,10.0,East,11.5,-,N/A,,Scattered Clouds,90,2013-01-10 18:52:00
1:47 PM,39.2,26.6,61,30.07,10.0,East,11.5,-,0.00,,Overcast,90,2013-01-10 19:47:00
1:52 PM,39.9,27.0,60,30.09,10.0,East,9.2,-,0.00,,Overcast,90,2013-01-10 19:52:00
2:52 PM,39.9,28.0,63,30.06,10.0,East,10.4,-,N/A,,Overcast,100,2013-01-10 20:52:00
3:31 PM,37.4,33.8,87,30.03,2.0,ESE,9.2,-,0.02,Rain,Light Rain,110,2013-01-10 21:31:00
3:38 PM,37.4,33.8,87,30.03,1.8,ESE,10.4,-,0.02,Rain,Light Rain,110,2013-01-10 21:38:00
3:40 PM,35.6,33.8,93,30.02,2.0,ESE,9.2,-,0.02,Rain,Light Freezing Rain,110,2013-01-10 21:40:00
3:49 PM,35.6,33.8,93,30.02,1.5,ESE,9.2,-,0.03,Rain,Light Freezing Rain,110,2013-01-10 21:49:00
3:52 PM,36.0,34.0,93,30.04,1.2,ESE,10.4,-,0.03,Rain,Light Freezing Rain,120,2013-01-10 21:52:00
4:03 PM,35.6,33.8,93,30.02,3.0,ESE,11.5,-,0.01,Rain,Light Freezing Rain,110,2013-01-10 22:03:00
4:20 PM,35.6,33.8,93,30.01,10.0,ESE,9.2,-,0.01,,Overcast,110,2013-01-10 22:20:00
4:48 PM,35.6,33.8,93,29.99,10.0,East,9.2,-,0.01,,Overcast,100,2013-01-10 22:48:00
4:52 PM,36.0,34.0,93,30.01,10.0,ESE,9.2,-,0.01,,Overcast,110,2013-01-10 22:52:00
5:34 PM,35.6,35.6,100,29.98,3.0,ESE,10.4,-,N/A,,Overcast,110,2013-01-10 23:34:00
5:43 PM,35.6,35.6,100,29.97,2.0,ESE,9.2,-,0.00,Rain,Light Rain,110,2013-01-10 23:43:00
5:52 PM,36.0,36.0,100,29.99,1.8,East,10.4,-,0.00,,Overcast,100,2013-01-10 23:52:00
6:25 PM,35.6,35.6,100,29.96,1.0,ESE,9.2,-,N/A,,Overcast,110,2013-01-11 00:25:00
6:52 PM,36.0,36.0,100,29.96,1.2,East,8.1,-,0.01,Rain,Light Rain,100,2013-01-11 00:52:00
7:07 PM,35.6,35.6,100,29.93,1.0,ESE,9.2,-,0.00,,Overcast,110,2013-01-11 01:07:00
7:16 PM,35.6,35.6,100,29.93,0.8,ESE,9.2,-,0.00,,Overcast,110,2013-01-11 01:16:00
7:39 PM,35.6,35.6,100,29.90,1.0,East,6.9,-,0.00,Rain,Light Rain,90,2013-01-11 01:39:00
7:47 PM,35.6,35.6,100,29.90,1.8,East,5.8,-,0.00,Rain,Light Rain,100,2013-01-11 01:47:00
7:52 PM,36.0,36.0,100,29.92,2.5,ESE,5.8,-,0.00,Rain,Light Rain,110,2013-01-11 01:52:00
8:00 PM,35.6,35.6,100,29.90,4.0,ESE,6.9,-,0.00,,Overcast,110,2013-01-11 02:00:00
8:52 PM,36.0,36.0,100,29.91,4.0,ESE,5.8,-,0.04,Rain,Rain,120,2013-01-11 02:52:00
9:52 PM,37.0,37.0,100,29.87,5.0,East,5.8,-,0.08,Rain,Light Rain,100,2013-01-11 03:52:00
10:52 PM,37.0,37.0,100,29.81,4.0,East,5.8,-,0.00,,Overcast,100,2013-01-11 04:52:00
11:40 PM,37.4,37.4,100,29.79,1.8,ESE,5.8,-,N/A,,Overcast,110,2013-01-11 05:40:00